Location: Peebles
(55.6412°N, 3.1714°W)
Time: 21:41:52
(UTC+01:00)

deb Kosmos-2123 - Pass Details

Date: 09 July 2022
Orbit: 942 x 985 km, 82.9° (Epoch: 17 August)

Event Time Altitude Azimuth Distance (km) Brightness Sun altitude
Exits shadow 23:47:16 - 136° (SE) 2,779 ? -9.7°
Reaches altitude 10° 23:47:25 10° 135° (SE) 2,735 ? -9.7°
Maximum altitude 23:52:28 26° 82° (E) 1,810 ? -10.0°
Drops below altitude 10° 23:57:30 10° 28° (NNE) 2,731 ? -10.2°
Sets 00:00:22 0° 16° (NNE) 3,676 ? -10.4°
